sat.trackr.live / text

‹ back to catalog

TIANLIAN 2-04

NORAD 63361 · 2025-062A

PAYLOAD ACTIVE UNKNOWN

§ Identity

Operator
Country
PRC
Launch date
2025-03-26
Launch site
XICLF
Launch vehicle
Mass (kg)
RCS (m²)

Purposes: comms

External: N2YO · Heavens-Above · Gunter

§ Orbital elements

Epoch: 2026-05-24T22:59:32.062272Z

Period
1,436.10 min
Inclination
4.4324°
Eccentricity
0.0032018
Mean motion
1.00271499 rev/d
Perigee alt
35,651.7 km
Apogee alt
35,921.7 km
Semi-major
42,164.8 km
B*
0.0000e+0
RAAN
274.7760°
Arg perigee
11.1855°
Mean anomaly
21.5655°
Rev number
437

§ Raw data

TIANLIAN 2-041 63361U 25062A   26144.95800998 -.00000142  00000+0  00000+0 0  99952 63361   4.4324 274.7760 0032018  11.1855  21.5655  1.00271499  4377

JSON: /api/v1/satellites/63361 · /tle

For live sub-satellite position, see the globe view (requires WebGL).

§ Visibility from observer

Set your observer location to see the next 7 days of passes ≥ 10°. The values pass through the URL so the page stays shareable.

No JS? Fill the form by hand. The geolocation button needs JavaScript.